Vorticity
5 5 9 10 10 13 14 12 13 14 14 9 5 7 13 13 10 18 28 30 21 13
4 8 5 8 12 13 13 12 8 7 6 7 9 10 9 9 17 30 24 16 29 21
6 7 12 15 17 15 2 -0 4 8 13 9 9 10 8 14 26 15 9 17 18 22
9 16 14 14 8 9 -0 -2 6 9 16 7 6 6 4 25 21 10 20 15 16 18
8 12 14 4 14 0 3 2 12 12 4 5 1 2 39 17 11 19 22 18 21 15
15 3 5 11 3 1 4 13 8 7 5 3 9 37 14 16 23 29 23 17 14 14
-7 9 1 9 3 18 10 9 4 4 6 15 24 13 14 23 34 23 15 14 14 13
8 19 18 8 12 7 3 8 13 6 15 18 9 15 20 33 20 10 12 13 10 13
32 5 13 5 2 9 9 12 8 13 24 5 20 10 27 27 12 13 14 6 9 9
21 -3 -2 4 3 3 13 8 11 18 6 25 12 11 26 10 19 10 6 6 3 7
17 -17 6 6 12 18 11 4 16 13 19 17 14 14 11 9 16 14 16 12 5 13
10 14 -2 8 12 13 8 10 13 10 20 14 7 10 8 16 12 7 5 12 12 13
-12 12 29 13 13 7 11 17 11 19 14 10 16 14 9 14 9 7 9 13 17 19
10 14 12 9 11 11 16 12 19 14 13 12 15 10 6 8 10 12 12 9 5 7
Height
5695 5694 5691 5689 5687 5684 5682 5679 5676 5672 5666 5661 5656 5652 5644 5637 5630 5623 5613 5606 5601 5598
5683 5680 5678 5675 5674 5671 5670 5667 5663 5658 5653 5647 5642 5637 5629 5621 5612 5603 5596 5591 5586 5583
5670 5667 5664 5663 5661 5660 5658 5654 5650 5645 5638 5633 5628 5622 5615 5604 5596 5589 5585 5578 5573 5570
5657 5655 5652 5651 5650 5648 5645 5642 5637 5632 5626 5619 5613 5608 5598 5589 5583 5579 5573 5567 5564 5561
5645 5643 5643 5641 5639 5636 5633 5629 5625 5619 5612 5606 5601 5593 5585 5579 5573 5567 5561 5558 5555 5553
5633 5632 5631 5630 5628 5625 5621 5616 5612 5607 5600 5594 5589 5582 5576 5570 5563 5556 5553 5552 5549 5547
5623 5622 5620 5618 5616 5612 5610 5605 5601 5595 5590 5584 5578 5573 5568 5559 5554 5550 5549 5547 5545 5543
5611 5610 5609 5607 5604 5602 5598 5595 5589 5585 5578 5573 5570 5566 5559 5551 5548 5547 5546 5544 5542 5540
5600 5600 5599 5596 5594 5592 5589 5585 5579 5574 5569 5565 5563 5559 5552 5547 5545 5545 5543 5541 5539 5537
5589 5589 5587 5585 5582 5581 5578 5574 5570 5566 5560 5559 5557 5554 5548 5543 5543 5542 5540 5538 5537 5535
5576 5578 5575 5573 5573 5571 5567 5565 5562 5557 5553 5552 5551 5547 5543 5540 5540 5539 5536 5535 5534 5532
5566 5565 5564 5563 5560 5561 5558 5556 5552 5548 5546 5546 5544 5541 5538 5536 5536 5535 5533 5531 5530 5528
5553 5554 5553 5552 5551 5550 5548 5545 5543 5540 5540 5539 5537 5536 5534 5533 5533 5531 5530 5528 5525 5524
5544 5543 5543 5542 5540 5540 5538 5536 5534 5533 5533 5533 5531 5531 5530 5529 5529 5528 5526 5524 5523 5521